Overview Statistics Trail Chart Weather Telemetry Raw packets
 

This is the latest recevied weather packets stored in our database for station/object TONGUE. If no packets are shown the sender has not sent any weather packets the latest 10 day(s).

<< 37 38 39 40 41 42 43 >>
Time Temp. Humidity Pressure Rain* Wind** Luminosity Snow
1787871002 20° C 71% 0 hPa - - - -
1787870402 20° C 73% 0 hPa - - - -
1787869803 20° C 74% 0 hPa - - - -
1787869203 20° C 74% 0 hPa - - - -
1787868603 20° C 71% 0 hPa - - - -
1787868008 20.56° C 70% 0 hPa - - - -
1787867403 20° C 67% 0 hPa - - - -
1787866803 20° C 67% 0 hPa - - - -
1787866203 19.44° C 73% 0 hPa - - - -
1787865604 19.44° C 73% 0 hPa - - - -
1787865003 18.89° C 71% 0 hPa - - - -
1787864404 19.44° C 77% 0 hPa - - - -
1787863803 18.89° C 79% 0 hPa - - - -
1787863203 18.89° C 81% 0 hPa - - - -
1787862603 18.89° C 79% 0 hPa - - - -
1787862003 18.89° C 84% 0 hPa - - - -
1787861403 19.44° C 81% 0 hPa - - - -
1787860203 18.89° C 86% 0 hPa - - - -
1787859603 18.33° C 92% 0 hPa - - - -
1787859004 18.33° C 94% 0 hPa - - - -
1787858404 17.78° C 97% 0 hPa - - - -
1787857803 17.78° C 100% 0 hPa - - - -
1787857203 17.22° C 100% 0 hPa - - - -
1787856603 16.67° C 100% 0 hPa - - - -
1787856011 16.67° C 100% 0 hPa - - - -

* Rain since midnight (hover to see other rain measurements)
** Current wind speed in m/s (hover to see current wind gust speed)